sat.trackr.live / text

‹ back to catalog

STARLINK-1504

NORAD 45746 · 2020-038S

PAYLOAD ACTIVE UNKNOWN

§ Identity

Operator
Country
US
Launch date
2020-06-13
Launch site
AFETR
Launch vehicle
Mass (kg)
RCS (m²)

Purposes: comms

External: N2YO · Heavens-Above · Gunter

§ Orbital elements

Epoch: 2026-09-20T00:50:07.538208Z

Period
91.91 min
Inclination
53.0163°
Eccentricity
0.0003437
Mean motion
15.66736878 rev/d
Perigee alt
365.9 km
Apogee alt
370.6 km
Semi-major
6,746.4 km
B*
3.4855e-4
RAAN
275.2876°
Arg perigee
64.1737°
Mean anomaly
295.9632°
Rev number
34,784

§ Raw data

STARLINK-15041 45746U 20038S   26263.03480947  .00037000  00000+0  34855-3 0  99902 45746  53.0163 275.2876 0003437  64.1737 295.9632 15.66736878347847

JSON: /api/v1/satellites/45746 · /tle

For live sub-satellite position, see the globe view (requires WebGL).

§ Visibility from observer

Set your observer location to see the next 7 days of passes ≥ 10°. The values pass through the URL so the page stays shareable.

No JS? Fill the form by hand. The geolocation button needs JavaScript.